Location: Newark
(10.3333°N, 37.7167°E)
Time: 06:15:46
(UTC+00:00)

STARLINK-1081 - Pass Details

Date: 04 February 2020
Orbit: 348 x 351 km, 53.0° (Epoch: 17 February)

Event Time Altitude Azimuth Distance (km) Brightness Sun altitude
Rises 17:10:44 0° 315° (NW) 2,160 7.1 -23.8°
Reaches altitude 10° 17:12:48 10° 308° (NW) 1,318 6.0 -24.3°
Enters shadow 17:13:47 18° 299° (WNW) 949 5.3 -24.5°
